Clermont County, Batavia, OH

3:33 PM EDT on March 24, 2017 (GMT -0400)
Clermont County, Batavia

Weather History for KI69 - February, 2014

Change the Weather History Date:

Friday, February 21, 2014

  Actual Average (KLUK) Record (KLUK)
Temperature  
Mean Temperature 45 °F -  
Max Temperature 51 °F 49 °F 71 °F (1997)
Min Temperature 39 °F 28 °F 0 °F (1968)
Degree Days  
Heating Degree Days 20    
Moisture  
Dew Point 26 °F    
Average Humidity 53    
Maximum Humidity 88    
Minimum Humidity 25    
Precipitation  
Precipitation 0.11 in - - ()
Sea Level Pressure  
Sea Level Pressure 29.84 in    
Wind  
Wind Speed 13 mph (WSW)    
Max Wind Speed 28 mph    
Max Gust Speed 37 mph    
Visibility 10 miles    
Events Rain    
Averages and records for this station are not official NWS values.
T = Trace of Precipitation, MM = Missing Value Source: NWS Daily Summary

Daily Weather History Graph

Daily Weather History Graph

Search for Another Location

Airport or City:

Trip Planner

Search our weather history database for the weather conditions in past years. The results will help you decide how hot, cold, wet, or windy it might be!

Date:

Astronomy

Feb. 21, 2014 Rise Set
Actual Time 7:20 AM EST 6:20 PM EST
Civil Twilight 6:53 AM EST 6:47 PM EST
Nautical Twilight 6:22 AM EST 7:19 PM EST
Astronomical Twilight 5:51 AM EST 7:50 PM EST
Moon 12:10 AM EST (2/21) 10:47 AM EST (2/21)
Length of Visible Light 11h 54m
Length of Day
11h 00m
Waning Gibbous, 61% of the Moon is Illuminated
Feb 21
Waning Gibbous
Feb 22
Last Quarter
Mar 1
New
Mar 8
First Quarter
Mar 16
Full

Hourly Weather History & Observations

Time (EST) Temp. Windchill Dew Point Humidity Pressure Visibility Wind Dir Wind Speed Gust Speed Precip Events Conditions
12:17 AM 50.0 °F - 46.4 °F 87% 29.58 in 7.0 mi West 13.8 mph 21.9 mph 0.06 in Rain Rain
12:36 AM 51.8 °F - 48.2 °F 88% 29.60 in 10.0 mi West 8.1 mph - 0.06 in   Overcast
12:56 AM 51.8 °F - 48.2 °F 88% 29.60 in 10.0 mi West 11.5 mph 17.3 mph 0.08 in Rain Light Rain
1:17 AM 51.8 °F - 48.2 °F 88% 29.62 in 7.0 mi West 10.4 mph - 0.02 in Rain Rain
1:36 AM 50.0 °F - 46.4 °F 87% 29.66 in 10.0 mi WNW 13.8 mph - 0.02 in   Overcast
1:57 AM 46.4 °F 40.7 °F 42.8 °F 87% 29.66 in 10.0 mi WNW 12.7 mph 20.7 mph 0.03 in Rain Light Rain
2:17 AM 44.6 °F 38.8 °F 41.0 °F 87% 29.69 in 10.0 mi WNW 11.5 mph 17.3 mph N/A   Overcast
2:36 AM 44.6 °F 38.8 °F 41.0 °F 87% 29.73 in 10.0 mi West 11.5 mph - N/A   Overcast
2:57 AM 44.6 °F 38.1 °F 37.4 °F 76% 29.71 in 10.0 mi West 13.8 mph 19.6 mph N/A   Light Drizzle
3:17 AM 42.8 °F 37.5 °F 33.8 °F 70% 29.73 in 10.0 mi West 9.2 mph 23.0 mph N/A Rain Light Rain
3:36 AM 42.8 °F 37.0 °F 33.8 °F 70% 29.73 in 10.0 mi West 10.4 mph 19.6 mph N/A   Overcast
3:57 AM 42.8 °F 38.0 °F 35.6 °F 76% 29.71 in 10.0 mi WSW 8.1 mph - N/A   Overcast
4:17 AM 41.0 °F 34.7 °F 33.8 °F 76% 29.73 in 10.0 mi WSW 10.4 mph - N/A   Overcast
4:36 AM 41.0 °F 34.3 °F 35.6 °F 81% 29.74 in 10.0 mi WSW 11.5 mph 16.1 mph N/A   Overcast
4:57 AM 41.0 °F 33.1 °F 33.8 °F 76% 29.77 in 10.0 mi WSW 15.0 mph 21.9 mph N/A   Overcast
5:17 AM 41.0 °F 33.9 °F 33.8 °F 76% 29.76 in 10.0 mi WSW 12.7 mph - N/A   Overcast
5:36 AM 41.0 °F 33.5 °F 32.0 °F 70% 29.76 in 10.0 mi WSW 13.8 mph 18.4 mph N/A   Overcast
5:57 AM 41.0 °F 34.3 °F 32.0 °F 70% 29.76 in 10.0 mi SW 11.5 mph 16.1 mph N/A   Overcast
6:17 AM 41.0 °F 35.2 °F 32.0 °F 70% 29.77 in 10.0 mi SW 9.2 mph - N/A   Overcast
6:36 AM 41.0 °F 34.7 °F 32.0 °F 70% 29.76 in 10.0 mi SW 10.4 mph - N/A   Overcast
6:57 AM 39.2 °F 33.0 °F 32.0 °F 75% 29.76 in 10.0 mi SW 9.2 mph - N/A   Scattered Clouds
7:17 AM 39.2 °F 32.0 °F 32.0 °F 75% 29.77 in 10.0 mi SW 11.5 mph - N/A   Clear
7:36 AM 39.2 °F 33.0 °F 32.0 °F 75% 29.77 in 10.0 mi SW 9.2 mph - N/A   Clear
7:57 AM 39.2 °F 32.5 °F 32.0 °F 75% 29.78 in 10.0 mi SW 10.4 mph 17.3 mph N/A   Clear
8:17 AM 39.2 °F 31.6 °F 32.0 °F 75% 29.79 in 10.0 mi SW 12.7 mph 21.9 mph N/A   Clear
8:36 AM 41.0 °F 33.1 °F 32.0 °F 70% 29.80 in 10.0 mi SW 15.0 mph 24.2 mph N/A   Clear
8:57 AM 41.0 °F 31.9 °F 32.0 °F 70% 29.80 in 10.0 mi WSW 19.6 mph 26.5 mph N/A   Clear
9:16 AM 42.8 °F 34.0 °F 32.0 °F 66% 29.80 in 10.0 mi WSW 20.7 mph 26.5 mph N/A   Mostly Cloudy
9:37 AM 42.8 °F 33.1 °F 30.2 °F 61% 29.80 in 10.0 mi WSW 25.3 mph 34.5 mph N/A   Overcast
9:57 AM 42.8 °F 35.4 °F 30.2 °F 61% 29.80 in 10.0 mi WSW 15.0 mph 32.2 mph N/A   Overcast
10:16 AM 42.8 °F 32.7 °F 28.4 °F 57% 29.81 in 10.0 mi WSW 27.6 mph 35.7 mph N/A   Overcast
10:37 AM 42.8 °F 33.5 °F 26.6 °F 53% 29.82 in 10.0 mi WSW 23.0 mph 33.4 mph N/A   Overcast
10:57 AM 41.0 °F 30.5 °F 26.6 °F 57% 29.83 in 10.0 mi WSW 26.5 mph 35.7 mph N/A   Overcast
11:16 AM 42.8 °F 34.0 °F 26.6 °F 53% 29.84 in 10.0 mi WSW 20.7 mph 31.1 mph N/A   Mostly Cloudy
11:37 AM 42.8 °F 34.3 °F 26.6 °F 53% 29.85 in 10.0 mi WSW 19.6 mph 29.9 mph N/A   Overcast
11:57 AM 44.6 °F 36.1 °F 24.8 °F 46% 29.84 in 10.0 mi WSW 21.9 mph 34.5 mph N/A   Mostly Cloudy
12:16 PM 44.6 °F 36.9 °F 26.6 °F 49% 29.84 in 10.0 mi WSW 18.4 mph 25.3 mph N/A   Scattered Clouds
12:37 PM 44.6 °F 35.1 °F 24.8 °F 46% 29.83 in 10.0 mi WSW 27.6 mph 32.2 mph N/A   Clear
12:57 PM 46.4 °F 39.0 °F 26.6 °F 46% 29.84 in 10.0 mi West 19.6 mph 28.8 mph N/A   Clear
1:16 PM 46.4 °F 39.0 °F 24.8 °F 43% 29.83 in 10.0 mi WSW 19.6 mph 32.2 mph N/A   Clear
1:37 PM 48.2 °F - 24.8 °F 40% 29.83 in 10.0 mi SW 20.7 mph 32.2 mph N/A   Clear
1:57 PM 48.2 °F - 26.6 °F 43% 29.84 in 10.0 mi WSW 16.1 mph 28.8 mph N/A   Clear
2:16 PM 50.0 °F - 24.8 °F 37% 29.84 in 10.0 mi WSW 17.3 mph 29.9 mph N/A   Clear
2:37 PM 48.2 °F - 19.4 °F 32% 29.85 in 10.0 mi West 20.7 mph 33.4 mph N/A   Clear
2:57 PM 48.2 °F - 19.4 °F 32% 29.86 in 10.0 mi WSW 19.6 mph 34.5 mph N/A   Clear
3:16 PM 50.0 °F - 19.4 °F 30% 29.86 in 10.0 mi West 13.8 mph 26.5 mph N/A   Clear
3:37 PM 48.2 °F - 17.6 °F 30% 29.87 in 10.0 mi WSW 23.0 mph 36.8 mph N/A   Clear
3:57 PM 48.2 °F - 17.6 °F 30% 29.88 in 10.0 mi West 21.9 mph 26.5 mph N/A   Clear
4:16 PM 48.2 °F - 17.6 °F 30% 29.89 in 10.0 mi WSW 24.2 mph 34.5 mph N/A   Clear
4:37 PM 46.4 °F 39.2 °F 14.0 °F 27% 29.90 in 10.0 mi West 18.4 mph 31.1 mph N/A   Clear
4:56 PM 46.4 °F 39.5 °F 17.6 °F 32% 29.91 in 10.0 mi West 17.3 mph 25.3 mph N/A   Clear
5:16 PM 46.4 °F 39.5 °F 17.6 °F 32% 29.92 in 10.0 mi West 17.3 mph 23.0 mph N/A   Clear
5:37 PM 46.4 °F 38.5 °F 14.0 °F 27% 29.93 in 10.0 mi West 21.9 mph 26.5 mph N/A   Clear
5:56 PM 44.6 °F 37.8 °F 10.4 °F 25% 29.93 in 10.0 mi West 15.0 mph 23.0 mph N/A   Clear
6:16 PM 44.6 °F 40.2 °F 12.2 °F 27% 29.94 in 10.0 mi West 8.1 mph - N/A   Clear
6:37 PM 42.8 °F 39.3 °F 14.0 °F 31% 29.95 in 10.0 mi West 5.8 mph - N/A   Clear
6:56 PM 42.8 °F 36.6 °F 14.0 °F 31% 29.96 in 10.0 mi WSW 11.5 mph 19.6 mph N/A   Clear
7:17 PM 42.8 °F 37.5 °F 15.8 °F 34% 29.97 in 10.0 mi WSW 9.2 mph - N/A   Clear
7:37 PM 41.0 °F 35.8 °F 17.6 °F 39% 29.98 in 10.0 mi WSW 8.1 mph - N/A   Clear
7:56 PM 41.0 °F 36.4 °F 15.8 °F 36% 29.98 in 10.0 mi SW 6.9 mph - N/A   Clear
8:17 PM 42.8 °F 39.3 °F 12.2 °F 29% 29.98 in 10.0 mi SW 5.8 mph - N/A   Clear
8:37 PM 41.0 °F 37.1 °F 12.2 °F 31% 29.98 in 10.0 mi SW 5.8 mph - N/A   Clear
8:56 PM 41.0 °F 36.4 °F 12.2 °F 31% 29.98 in 10.0 mi SW 6.9 mph - N/A   Clear
9:17 PM 41.0 °F 37.1 °F 12.2 °F 31% 29.99 in 10.0 mi SW 5.8 mph - N/A   Clear
9:37 PM 41.0 °F 38.0 °F 12.2 °F 31% 30.00 in 10.0 mi SW 4.6 mph - N/A   Clear
9:56 PM 41.0 °F 37.1 °F 14.0 °F 33% 30.00 in 10.0 mi SSW 5.8 mph - N/A   Clear
10:17 PM 39.2 °F 35.9 °F 14.0 °F 36% 29.98 in 10.0 mi South 4.6 mph - N/A   Clear
10:37 PM 39.2 °F 35.9 °F 12.2 °F 33% 29.99 in 10.0 mi SSW 4.6 mph - N/A   Clear
10:56 PM 39.2 °F 37.0 °F 14.0 °F 36% 29.99 in 10.0 mi SSW 3.5 mph - N/A   Clear
11:17 PM 41.0 °F 35.8 °F 14.0 °F 33% 29.98 in 10.0 mi SSW 8.1 mph - N/A   Clear
11:37 PM 41.0 °F 35.8 °F 14.0 °F 33% 29.98 in 10.0 mi SSW 8.1 mph - N/A   Clear
11:56 PM 41.0 °F 35.8 °F 14.0 °F 33% 29.98 in 10.0 mi SSW 8.1 mph - N/A   Clear